Volver al catálogo

ATLAS 5 CENTAUR DEB

ActivoHEO
NORAD 44686·DEBRIS·🇺🇸 United States

Lanzado Oct 17, 2018 desde Cape Canaveral Space Force Station

Loading…

Próximos Pases (próximas 24 horas)

TLE

EnvejeciendoSource: Space-Track

Época: Sep 1, 2026, 21:11 UTC

1 44686U 18079AY  26244.88302073 -.00000121  00000-0  00000+0 0  9996
2 44686  12.7781  67.9238 4630175 249.3876  56.1617  1.69097359 44874

Sigue ATLAS 5 CENTAUR DEB en tiempo real con AllMySat

Download on the App Store